Location: Croisilles
(50.1998°N, 2.8793°E)
Time: 12:32:17
(UTC+00:00)

Meteor 2-15 - Pass Details

Date: 21 January 2021
Orbit: 936 x 955 km, 82.5° (Epoch: 26 February)

Event Time Altitude Azimuth Distance (km) Brightness Sun altitude
Rises 18:30:17 0° 352° (N) 3,646 7.5 -19.8°
Reaches altitude 10° 18:32:52 10° 357° (N) 2,697 6.8 -20.2°
Maximum altitude 18:38:54 53° 74° (ENE) 1,163 4.5 -21.2°
Drops below altitude 10° 18:44:53 10° 151° (SSE) 2,678 6.6 -22.1°
Sets 18:47:26 0° 156° (SSE) 3,618 7.3 -22.5°
